SSQH weather

Hospital Mater Dei Heliport
Belo Horizonte, Minas Gerais, Brazil

Public forecast

Using degrees Celsius for public forecast. Weather courtesy of forecast.io.

METAR (pilot weather report)

Report is more than 6 hours old.

Closest report is Carlos Prates Airport, 2.6 nm (4.8 km) WNW. Retrieved 2019/09/17 20:00 UTC (12 hours ago):

SBPR 172000Z 00000KT CAVOK 31/09 Q1015

TAF (pilot weather forecast)

Forecast is more than 12 hours old.

Closest forecast is Pampulha - Carlos Drummond de Andrade Airport, 4.6 nm (8.5 km) N. Retrieved 2012/03/26 18:12 UTC (7 years ago):

TAF SBBH 261639Z 2618/2706 09005KT 9999 SCT030 TX28/2618Z TN20/2705Z PROB30 2619/2624 8000 TSRA BKN035 FEW045CB RMK PGG